owner,sensor,date,latitude,longitude,vertical_datum,wind_speed,wind_to_direction,wind_speed_of_gust,qcFlag 
WAVCIS,ioos:station:WAVCIS:CSI06:1,2016-04-01T00:00:00Z,28.8667,-90.4833,10.0,7.43,171.0,,'11111222,11111222,99999999' 
WAVCIS,ioos:station:WAVCIS:CSI06:1,2016-04-01T01:00:00Z,28.8667,-90.4833,10.0,7.14,193.0,,'11111222,11111222,99999999' 
WAVCIS,ioos:station:WAVCIS:CSI06:1,2016-04-01T02:00:00Z,28.8667,-90.4833,10.0,5.971,186.0,,'11111222,11111222,99999999' 
WAVCIS,ioos:station:WAVCIS:CSI06:1,2016-04-01T03:00:00Z,28.8667,-90.4833,10.0,7.01,196.0,,'11111222,11111222,99999999' 
WAVCIS,ioos:station:WAVCIS:CSI06:1,2016-04-01T04:00:00Z,28.8667,-90.4833,10.0,7.45,191.0,,'11111222,11111222,99999999' 
WAVCIS,ioos:station:WAVCIS:CSI06:1,2016-04-01T05:00:00Z,28.8667,-90.4833,10.0,7.26,184.0,,'11111222,11111222,99999999' 
WAVCIS,ioos:station:WAVCIS:CSI06:1,2016-04-01T06:00:00Z,28.8667,-90.4833,10.0,7.07,180.0,,'11111222,11111222,99999999' 
WAVCIS,ioos:station:WAVCIS:CSI06:1,2016-04-01T07:00:00Z,28.8667,-90.4833,10.0,7.37,185.0,,'11111222,11111222,99999999' 
WAVCIS,ioos:station:WAVCIS:CSI06:1,2016-04-01T08:00:00Z,28.8667,-90.4833,10.0,5.699,195.0,,'11111222,11111222,99999999' 
WAVCIS,ioos:station:WAVCIS:CSI06:1,2016-04-01T09:00:00Z,28.8667,-90.4833,10.0,5.905,182.0,,'11111222,11111222,99999999' 
WAVCIS,ioos:station:WAVCIS:CSI06:1,2016-04-01T10:00:00Z,28.8667,-90.4833,10.0,5.181,164.0,,'11111222,11111222,99999999' 
WAVCIS,ioos:station:WAVCIS:CSI06:1,2016-04-01T11:00:00Z,28.8667,-90.4833,10.0,9.13,155.0,,'11111222,11111222,99999999' 
WAVCIS,ioos:station:WAVCIS:CSI06:1,2016-04-01T12:00:00Z,28.8667,-90.4833,10.0,6.01,146.0,,'11111222,11111222,99999999' 
WAVCIS,ioos:station:WAVCIS:CSI06:1,2016-04-01T13:00:00Z,28.8667,-90.4833,10.0,2.948,173.0,,'11111222,11111222,99999999' 
WAVCIS,ioos:station:WAVCIS:CSI06:1,2016-04-01T14:00:00Z,28.8667,-90.4833,10.0,6.723,154.0,,'11111222,11111222,99999999' 
WAVCIS,ioos:station:WAVCIS:CSI06:1,2016-04-01T15:00:00Z,28.8667,-90.4833,10.0,5.85,179.0,,'11111222,11111222,99999999' 
WAVCIS,ioos:station:WAVCIS:CSI06:1,2016-04-01T16:00:00Z,28.8667,-90.4833,10.0,5.674,146.0,,'11111222,11111222,99999999' 
WAVCIS,ioos:station:WAVCIS:CSI06:1,2016-04-01T17:00:00Z,28.8667,-90.4833,10.0,5.263,131.0,,'11111222,11111222,99999999' 
WAVCIS,ioos:station:WAVCIS:CSI06:1,2016-04-01T18:00:00Z,28.8667,-90.4833,10.0,2.353,299.0,,'11111222,11111222,99999999' 
WAVCIS,ioos:station:WAVCIS:CSI06:1,2016-04-01T19:00:00Z,28.8667,-90.4833,10.0,3.832,159.0,,'11111222,11111222,99999999' 
WAVCIS,ioos:station:WAVCIS:CSI06:1,2016-04-01T20:00:00Z,28.8667,-90.4833,10.0,3.811,153.0,,'11111222,11111222,99999999' 
WAVCIS,ioos:station:WAVCIS:CSI06:1,2016-04-01T21:00:00Z,28.8667,-90.4833,10.0,3.538,176.0,,'11111222,11111222,99999999' 
WAVCIS,ioos:station:WAVCIS:CSI06:1,2016-04-01T22:00:00Z,28.8667,-90.4833,10.0,9.12,249.0,,'11111222,11111222,99999999' 
WAVCIS,ioos:station:WAVCIS:CSI06:1,2016-04-01T23:00:00Z,28.8667,-90.4833,10.0,13.9,25.0,,'11111222,11111222,99999999' 
WAVCIS,ioos:station:WAVCIS:CSI06:1,2016-04-02T00:00:00Z,28.8667,-90.4833,10.0,12.43,34.0,,'11111222,11111222,99999999' 
WAVCIS,ioos:station:WAVCIS:CSI06:1,2016-04-02T01:00:00Z,28.8667,-90.4833,10.0,13.15,15.0,,'11111222,11111222,99999999' 
WAVCIS,ioos:station:WAVCIS:CSI06:1,2016-04-02T02:00:00Z,28.8667,-90.4833,10.0,14.71,19.0,,'11111222,11111222,99999999' 
WAVCIS,ioos:station:WAVCIS:CSI06:1,2016-04-02T03:00:00Z,28.8667,-90.4833,10.0,18.1,19.0,,'11111222,11111222,99999999' 
WAVCIS,ioos:station:WAVCIS:CSI06:1,2016-04-02T04:00:00Z,28.8667,-90.4833,10.0,14.93,16.0,,'11111222,11111222,99999999' 
WAVCIS,ioos:station:WAVCIS:CSI06:1,2016-04-02T05:00:00Z,28.8667,-90.4833,10.0,12.88,17.0,,'11111222,11111222,99999999' 
WAVCIS,ioos:station:WAVCIS:CSI06:1,2016-04-02T06:00:00Z,28.8667,-90.4833,10.0,13.1,19.0,,'11111222,11111222,99999999' 
WAVCIS,ioos:station:WAVCIS:CSI06:1,2016-04-02T07:00:00Z,28.8667,-90.4833,10.0,12.27,12.0,,'11111222,11111222,99999999' 
WAVCIS,ioos:station:WAVCIS:CSI06:1,2016-04-02T08:00:00Z,28.8667,-90.4833,10.0,9.0,8.0,,'11111222,11111222,99999999' 
WAVCIS,ioos:station:WAVCIS:CSI06:1,2016-04-02T09:00:00Z,28.8667,-90.4833,10.0,12.92,11.0,,'11111222,11111222,99999999' 
WAVCIS,ioos:station:WAVCIS:CSI06:1,2016-04-02T10:00:00Z,28.8667,-90.4833,10.0,11.82,10.0,,'11111222,11111222,99999999' 
WAVCIS,ioos:station:WAVCIS:CSI06:1,2016-04-02T11:00:00Z,28.8667,-90.4833,10.0,12.88,13.0,,'11111222,11111222,99999999' 
WAVCIS,ioos:station:WAVCIS:CSI06:1,2016-04-02T12:00:00Z,28.8667,-90.4833,10.0,10.12,7.0,,'11111222,11111222,99999999' 
WAVCIS,ioos:station:WAVCIS:CSI06:1,2016-04-02T13:00:00Z,28.8667,-90.4833,10.0,13.6,15.0,,'11111222,11111222,99999999' 
WAVCIS,ioos:station:WAVCIS:CSI06:1,2016-04-02T14:00:00Z,28.8667,-90.4833,10.0,14.38,17.0,,'11111222,11111222,99999999' 
WAVCIS,ioos:station:WAVCIS:CSI06:1,2016-04-02T15:00:00Z,28.8667,-90.4833,10.0,10.31,13.0,,'11111222,11111222,99999999' 
WAVCIS,ioos:station:WAVCIS:CSI06:1,2016-04-02T16:00:00Z,28.8667,-90.4833,10.0,7.43,10.0,,'11111222,11111222,99999999' 
WAVCIS,ioos:station:WAVCIS:CSI06:1,2016-04-02T17:00:00Z,28.8667,-90.4833,10.0,10.01,13.0,,'11111222,11111222,99999999' 
WAVCIS,ioos:station:WAVCIS:CSI06:1,2016-04-02T18:00:00Z,28.8667,-90.4833,10.0,6.625,7.0,,'11111222,11111222,99999999' 
WAVCIS,ioos:station:WAVCIS:CSI06:1,2016-04-02T19:00:00Z,28.8667,-90.4833,10.0,5.88,4.0,,'11111222,11111222,99999999' 
WAVCIS,ioos:station:WAVCIS:CSI06:1,2016-04-02T20:00:00Z,28.8667,-90.4833,10.0,5.086,355.0,,'11111222,11111222,99999999' 
WAVCIS,ioos:station:WAVCIS:CSI06:1,2016-04-02T21:00:00Z,28.8667,-90.4833,10.0,5.553,348.0,,'11111222,11111222,99999999' 
WAVCIS,ioos:station:WAVCIS:CSI06:1,2016-04-02T22:00:00Z,28.8667,-90.4833,10.0,5.848,337.0,,'11111222,11111222,99999999' 
WAVCIS,ioos:station:WAVCIS:CSI06:1,2016-04-02T23:00:00Z,28.8667,-90.4833,10.0,7.15,338.0,,'11111222,11111222,99999999' 
WAVCIS,ioos:station:WAVCIS:CSI06:1,2016-04-03T00:00:00Z,28.8667,-90.4833,10.0,8.98,320.0,,'11111222,11111222,99999999' 
WAVCIS,ioos:station:WAVCIS:CSI06:1,2016-04-03T01:00:00Z,28.8667,-90.4833,10.0,9.57,337.0,,'11111222,11111222,99999999' 
WAVCIS,ioos:station:WAVCIS:CSI06:1,2016-04-03T02:00:00Z,28.8667,-90.4833,10.0,8.6,344.0,,'11111222,11111222,99999999' 
WAVCIS,ioos:station:WAVCIS:CSI06:1,2016-04-03T03:00:00Z,28.8667,-90.4833,10.0,10.03,341.0,,'11111222,11111222,99999999' 
WAVCIS,ioos:station:WAVCIS:CSI06:1,2016-04-03T04:00:00Z,28.8667,-90.4833,10.0,7.27,3.0,,'11111222,11111222,99999999' 
WAVCIS,ioos:station:WAVCIS:CSI06:1,2016-04-03T05:00:00Z,28.8667,-90.4833,10.0,8.21,7.0,,'11111222,11111222,99999999' 
WAVCIS,ioos:station:WAVCIS:CSI06:1,2016-04-03T06:00:00Z,28.8667,-90.4833,10.0,9.2,13.0,,'11111222,11111222,99999999' 
WAVCIS,ioos:station:WAVCIS:CSI06:1,2016-04-03T07:00:00Z,28.8667,-90.4833,10.0,9.66,15.0,,'11111222,11111222,99999999' 
WAVCIS,ioos:station:WAVCIS:CSI06:1,2016-04-03T08:00:00Z,28.8667,-90.4833,10.0,9.5,21.0,,'11111222,11111222,99999999' 
WAVCIS,ioos:station:WAVCIS:CSI06:1,2016-04-03T09:00:00Z,28.8667,-90.4833,10.0,10.33,22.0,,'11111222,11111222,99999999' 
WAVCIS,ioos:station:WAVCIS:CSI06:1,2016-04-03T10:00:00Z,28.8667,-90.4833,10.0,10.78,22.0,,'11111222,11111222,99999999' 
WAVCIS,ioos:station:WAVCIS:CSI06:1,2016-04-03T11:00:00Z,28.8667,-90.4833,10.0,10.05,24.0,,'11111222,11111222,99999999' 
WAVCIS,ioos:station:WAVCIS:CSI06:1,2016-04-03T12:00:00Z,28.8667,-90.4833,10.0,10.54,29.0,,'11111222,11111222,99999999' 
WAVCIS,ioos:station:WAVCIS:CSI06:1,2016-04-03T13:00:00Z,28.8667,-90.4833,10.0,8.98,28.0,,'11111222,11111222,99999999' 
WAVCIS,ioos:station:WAVCIS:CSI06:1,2016-04-03T14:00:00Z,28.8667,-90.4833,10.0,8.35,33.0,,'11111222,11111222,99999999' 
WAVCIS,ioos:station:WAVCIS:CSI06:1,2016-04-03T15:00:00Z,28.8667,-90.4833,10.0,6.757,39.0,,'11111222,11111222,99999999' 
WAVCIS,ioos:station:WAVCIS:CSI06:1,2016-04-03T16:00:00Z,28.8667,-90.4833,10.0,5.719,46.0,,'11111222,11111222,99999999' 
WAVCIS,ioos:station:WAVCIS:CSI06:1,2016-04-03T17:00:00Z,28.8667,-90.4833,10.0,5.053,43.0,,'11111222,11111222,99999999' 
WAVCIS,ioos:station:WAVCIS:CSI06:1,2016-04-03T18:00:00Z,28.8667,-90.4833,10.0,5.422,56.0,,'11111222,11111222,99999999' 
WAVCIS,ioos:station:WAVCIS:CSI06:1,2016-04-03T19:00:00Z,28.8667,-90.4833,10.0,5.323,62.0,,'11111222,11111222,99999999' 
WAVCIS,ioos:station:WAVCIS:CSI06:1,2016-04-03T20:00:00Z,28.8667,-90.4833,10.0,5.098,65.0,,'11111222,11111222,99999999' 
WAVCIS,ioos:station:WAVCIS:CSI06:1,2016-04-03T21:00:00Z,28.8667,-90.4833,10.0,3.815,80.0,,'11111222,11111222,99999999' 
WAVCIS,ioos:station:WAVCIS:CSI06:1,2016-04-03T22:00:00Z,28.8667,-90.4833,10.0,2.974,80.0,,'11111222,11111222,99999999' 
WAVCIS,ioos:station:WAVCIS:CSI06:1,2016-04-03T23:00:00Z,28.8667,-90.4833,10.0,3.386,120.0,,'11111222,11111222,99999999' 
WAVCIS,ioos:station:WAVCIS:CSI06:1,2016-04-04T00:00:00Z,28.8667,-90.4833,10.0,3.874,140.0,,'11111222,11111222,99999999' 
WAVCIS,ioos:station:WAVCIS:CSI06:1,2016-04-04T01:00:00Z,28.8667,-90.4833,10.0,4.367,153.0,,'11111222,11111222,99999999' 
WAVCIS,ioos:station:WAVCIS:CSI06:1,2016-04-04T02:00:00Z,28.8667,-90.4833,10.0,4.538,172.0,,'11111222,11111222,99999999' 
WAVCIS,ioos:station:WAVCIS:CSI06:1,2016-04-04T03:00:00Z,28.8667,-90.4833,10.0,4.252,191.0,,'11111222,11111222,99999999' 
WAVCIS,ioos:station:WAVCIS:CSI06:1,2016-04-04T04:00:00Z,28.8667,-90.4833,10.0,3.891,207.0,,'11111222,11111222,99999999' 
WAVCIS,ioos:station:WAVCIS:CSI06:1,2016-04-04T05:00:00Z,28.8667,-90.4833,10.0,4.54,233.0,,'11111222,11111222,99999999' 
WAVCIS,ioos:station:WAVCIS:CSI06:1,2016-04-04T06:00:00Z,28.8667,-90.4833,10.0,4.402,250.0,,'11111222,11111222,99999999' 
WAVCIS,ioos:station:WAVCIS:CSI06:1,2016-04-04T07:00:00Z,28.8667,-90.4833,10.0,5.108,262.0,,'11111222,11111222,99999999' 
WAVCIS,ioos:station:WAVCIS:CSI06:1,2016-04-04T08:00:00Z,28.8667,-90.4833,10.0,4.977,273.0,,'11111222,11111222,99999999' 
WAVCIS,ioos:station:WAVCIS:CSI06:1,2016-04-04T09:00:00Z,28.8667,-90.4833,10.0,5.304,286.0,,'11111222,11111222,99999999' 
WAVCIS,ioos:station:WAVCIS:CSI06:1,2016-04-04T10:00:00Z,28.8667,-90.4833,10.0,5.5,289.0,,'11111222,11111222,99999999' 
WAVCIS,ioos:station:WAVCIS:CSI06:1,2016-04-04T11:00:00Z,28.8667,-90.4833,10.0,6.404,303.0,,'11111222,11111222,99999999' 
WAVCIS,ioos:station:WAVCIS:CSI06:1,2016-04-04T12:00:00Z,28.8667,-90.4833,10.0,6.729,323.0,,'11111222,11111222,99999999' 
WAVCIS,ioos:station:WAVCIS:CSI06:1,2016-04-04T13:00:00Z,28.8667,-90.4833,10.0,5.796,335.0,,'11111222,11111222,99999999' 
WAVCIS,ioos:station:WAVCIS:CSI06:1,2016-04-04T14:00:00Z,28.8667,-90.4833,10.0,5.103,341.0,,'11111222,11111222,99999999' 
WAVCIS,ioos:station:WAVCIS:CSI06:1,2016-04-04T15:00:00Z,28.8667,-90.4833,10.0,4.073,346.0,,'11111222,11111222,99999999' 
WAVCIS,ioos:station:WAVCIS:CSI06:1,2016-04-04T16:00:00Z,28.8667,-90.4833,10.0,3.679,354.0,,'11111222,11111222,99999999' 
WAVCIS,ioos:station:WAVCIS:CSI06:1,2016-04-04T17:00:00Z,28.8667,-90.4833,10.0,2.169,1.0,,'11111222,11111222,99999999' 
WAVCIS,ioos:station:WAVCIS:CSI06:1,2016-04-04T18:00:00Z,28.8667,-90.4833,10.0,1.06,347.0,,'11111222,11111222,99999999' 
WAVCIS,ioos:station:WAVCIS:CSI06:1,2016-04-04T19:00:00Z,28.8667,-90.4833,10.0,1.77,309.0,,'11111222,11111222,99999999' 
WAVCIS,ioos:station:WAVCIS:CSI06:1,2016-04-04T20:00:00Z,28.8667,-90.4833,10.0,2.218,277.0,,'11111222,11111222,99999999' 
WAVCIS,ioos:station:WAVCIS:CSI06:1,2016-04-04T21:00:00Z,28.8667,-90.4833,10.0,3.172,273.0,,'11111222,11111222,99999999' 
WAVCIS,ioos:station:WAVCIS:CSI06:1,2016-04-04T22:00:00Z,28.8667,-90.4833,10.0,3.778,267.0,,'11111222,11111222,99999999' 
WAVCIS,ioos:station:WAVCIS:CSI06:1,2016-04-04T23:00:00Z,28.8667,-90.4833,10.0,4.508,264.0,,'11111222,11111222,99999999' 
WAVCIS,ioos:station:WAVCIS:CSI06:1,2016-04-05T00:00:00Z,28.8667,-90.4833,10.0,4.955,269.0,,'11111222,11111222,99999999' 
WAVCIS,ioos:station:WAVCIS:CSI06:1,2016-04-05T01:00:00Z,28.8667,-90.4833,10.0,5.103,263.0,,'11111222,11111222,99999999' 
WAVCIS,ioos:station:WAVCIS:CSI06:1,2016-04-05T02:00:00Z,28.8667,-90.4833,10.0,4.755,254.0,,'11111222,11111222,99999999' 
WAVCIS,ioos:station:WAVCIS:CSI06:1,2016-04-05T03:00:00Z,28.8667,-90.4833,10.0,5.287,252.0,,'11111222,11111222,99999999' 
WAVCIS,ioos:station:WAVCIS:CSI06:1,2016-04-05T04:00:00Z,28.8667,-90.4833,10.0,5.379,253.0,,'11111222,11111222,99999999' 
WAVCIS,ioos:station:WAVCIS:CSI06:1,2016-04-05T05:00:00Z,28.8667,-90.4833,10.0,5.432,261.0,,'11111222,11111222,99999999' 
WAVCIS,ioos:station:WAVCIS:CSI06:1,2016-04-05T06:00:00Z,28.8667,-90.4833,10.0,5.059,256.0,,'11111222,11111222,99999999' 
WAVCIS,ioos:station:WAVCIS:CSI06:1,2016-04-05T07:00:00Z,28.8667,-90.4833,10.0,5.224,267.0,,'11111222,11111222,99999999' 
WAVCIS,ioos:station:WAVCIS:CSI06:1,2016-04-05T08:00:00Z,28.8667,-90.4833,10.0,4.796,270.0,,'11111222,11111222,99999999' 
WAVCIS,ioos:station:WAVCIS:CSI06:1,2016-04-05T09:00:00Z,28.8667,-90.4833,10.0,5.512,292.0,,'11111222,11111222,99999999' 
WAVCIS,ioos:station:WAVCIS:CSI06:1,2016-04-05T10:00:00Z,28.8667,-90.4833,10.0,4.728,302.0,,'11111222,11111222,99999999' 
WAVCIS,ioos:station:WAVCIS:CSI06:1,2016-04-05T11:00:00Z,28.8667,-90.4833,10.0,5.492,316.0,,'11111222,11111222,99999999' 
WAVCIS,ioos:station:WAVCIS:CSI06:1,2016-04-05T12:00:00Z,28.8667,-90.4833,10.0,4.955,321.0,,'11111222,11111222,99999999' 
WAVCIS,ioos:station:WAVCIS:CSI06:1,2016-04-05T13:00:00Z,28.8667,-90.4833,10.0,4.859,326.0,,'11111222,11111222,99999999' 
WAVCIS,ioos:station:WAVCIS:CSI06:1,2016-04-05T14:00:00Z,28.8667,-90.4833,10.0,4.295,320.0,,'11111222,11111222,99999999' 
WAVCIS,ioos:station:WAVCIS:CSI06:1,2016-04-05T15:00:00Z,28.8667,-90.4833,10.0,4.306,321.0,,'11111222,11111222,99999999' 
WAVCIS,ioos:station:WAVCIS:CSI06:1,2016-04-05T16:00:00Z,28.8667,-90.4833,10.0,3.988,311.0,,'11111222,11111222,99999999' 
WAVCIS,ioos:station:WAVCIS:CSI06:1,2016-04-05T17:00:00Z,28.8667,-90.4833,10.0,4.07,314.0,,'11111222,11111222,99999999' 
WAVCIS,ioos:station:WAVCIS:CSI06:1,2016-04-05T18:00:00Z,28.8667,-90.4833,10.0,2.988,310.0,,'11111222,11111222,99999999' 
WAVCIS,ioos:station:WAVCIS:CSI06:1,2016-04-05T19:00:00Z,28.8667,-90.4833,10.0,2.163,297.0,,'11111222,11111222,99999999' 
WAVCIS,ioos:station:WAVCIS:CSI06:1,2016-04-05T20:00:00Z,28.8667,-90.4833,10.0,1.324,313.0,,'11111222,11111222,99999999' 
WAVCIS,ioos:station:WAVCIS:CSI06:1,2016-04-05T21:00:00Z,28.8667,-90.4833,10.0,1.184,272.0,,'11111222,11111222,99999999' 
WAVCIS,ioos:station:WAVCIS:CSI06:1,2016-04-05T22:00:00Z,28.8667,-90.4833,10.0,0.463,240.0,,'11111222,11111222,99999999' 
WAVCIS,ioos:station:WAVCIS:CSI06:1,2016-04-05T23:00:00Z,28.8667,-90.4833,10.0,0.339,184.0,,'11111222,11111222,99999999' 
WAVCIS,ioos:station:WAVCIS:CSI06:1,2016-04-06T00:00:00Z,28.8667,-90.4833,10.0,1.287,148.0,,'11111222,11111222,99999999' 
WAVCIS,ioos:station:WAVCIS:CSI06:1,2016-04-06T01:00:00Z,28.8667,-90.4833,10.0,1.055,119.0,,'11111222,11111222,99999999' 
WAVCIS,ioos:station:WAVCIS:CSI06:1,2016-04-06T02:00:00Z,28.8667,-90.4833,10.0,1.176,182.0,,'11111222,11111222,99999999' 
WAVCIS,ioos:station:WAVCIS:CSI06:1,2016-04-06T03:00:00Z,28.8667,-90.4833,10.0,1.654,131.0,,'11111222,11111222,99999999' 
WAVCIS,ioos:station:WAVCIS:CSI06:1,2016-04-06T04:00:00Z,28.8667,-90.4833,10.0,1.731,166.0,,'11111222,11111222,99999999' 
WAVCIS,ioos:station:WAVCIS:CSI06:1,2016-04-06T05:00:00Z,28.8667,-90.4833,10.0,1.867,172.0,,'11111222,11111222,99999999' 
WAVCIS,ioos:station:WAVCIS:CSI06:1,2016-04-06T06:00:00Z,28.8667,-90.4833,10.0,2.675,174.0,,'11111222,11111222,99999999' 
WAVCIS,ioos:station:WAVCIS:CSI06:1,2016-04-06T07:00:00Z,28.8667,-90.4833,10.0,2.645,164.0,,'11111222,11111222,99999999' 
WAVCIS,ioos:station:WAVCIS:CSI06:1,2016-04-06T08:00:00Z,28.8667,-90.4833,10.0,3.943,182.0,,'11111222,11111222,99999999' 
WAVCIS,ioos:station:WAVCIS:CSI06:1,2016-04-06T09:00:00Z,28.8667,-90.4833,10.0,4.402,192.0,,'11111222,11111222,99999999' 
WAVCIS,ioos:station:WAVCIS:CSI06:1,2016-04-06T10:00:00Z,28.8667,-90.4833,10.0,4.141,202.0,,'11111222,11111222,99999999' 
WAVCIS,ioos:station:WAVCIS:CSI06:1,2016-04-06T11:00:00Z,28.8667,-90.4833,10.0,3.895,192.0,,'11111222,11111222,99999999' 
WAVCIS,ioos:station:WAVCIS:CSI06:1,2016-04-06T12:00:00Z,28.8667,-90.4833,10.0,4.919,175.0,,'11111222,11111222,99999999' 
WAVCIS,ioos:station:WAVCIS:CSI06:1,2016-04-06T13:00:00Z,28.8667,-90.4833,10.0,5.696,176.0,,'11111222,11111222,99999999' 
WAVCIS,ioos:station:WAVCIS:CSI06:1,2016-04-06T14:00:00Z,28.8667,-90.4833,10.0,5.408,168.0,,'11111222,11111222,99999999' 
WAVCIS,ioos:station:WAVCIS:CSI06:1,2016-04-06T15:00:00Z,28.8667,-90.4833,10.0,6.2,170.0,7.7,'11111222,11111222,11111222' 
WAVCIS,ioos:station:WAVCIS:CSI06:1,2016-04-06T16:00:00Z,28.8667,-90.4833,10.0,5.7,190.0,6.2,'11111222,11111222,11111222' 
WAVCIS,ioos:station:WAVCIS:CSI06:1,2016-04-06T17:00:00Z,28.8667,-90.4833,10.0,5.1,210.0,6.2,'11111222,11111222,11111222' 
WAVCIS,ioos:station:WAVCIS:CSI06:1,2016-04-06T18:00:00Z,28.8667,-90.4833,10.0,6.72,233.0,,'11111222,11111222,99999999' 
WAVCIS,ioos:station:WAVCIS:CSI06:1,2016-04-06T19:00:00Z,28.8667,-90.4833,10.0,7.23,247.0,,'11111222,11111222,99999999' 
WAVCIS,ioos:station:WAVCIS:CSI06:1,2016-04-06T20:00:00Z,28.8667,-90.4833,10.0,8.36,246.0,,'11111222,11111222,99999999' 
WAVCIS,ioos:station:WAVCIS:CSI06:1,2016-04-06T21:00:00Z,28.8667,-90.4833,10.0,7.14,227.0,,'11111222,11111222,99999999' 
WAVCIS,ioos:station:WAVCIS:CSI06:1,2016-04-06T22:00:00Z,28.8667,-90.4833,10.0,6.377,242.0,,'11111222,11111222,99999999' 
WAVCIS,ioos:station:WAVCIS:CSI06:1,2016-04-06T23:00:00Z,28.8667,-90.4833,10.0,7.19,241.0,,'11111222,11111222,99999999' 
WAVCIS,ioos:station:WAVCIS:CSI06:1,2016-04-07T00:00:00Z,28.8667,-90.4833,10.0,7.14,255.0,,'11111222,11111222,99999999' 
WAVCIS,ioos:station:WAVCIS:CSI06:1,2016-04-07T01:00:00Z,28.8667,-90.4833,10.0,7.49,259.0,,'11111222,11111222,99999999' 
WAVCIS,ioos:station:WAVCIS:CSI06:1,2016-04-07T02:00:00Z,28.8667,-90.4833,10.0,6.529,258.0,,'11111222,11111222,99999999' 
WAVCIS,ioos:station:WAVCIS:CSI06:1,2016-04-07T03:00:00Z,28.8667,-90.4833,10.0,7.8,262.0,,'11111222,11111222,99999999' 
WAVCIS,ioos:station:WAVCIS:CSI06:1,2016-04-07T04:00:00Z,28.8667,-90.4833,10.0,8.0,263.0,,'11111222,11111222,99999999' 
WAVCIS,ioos:station:WAVCIS:CSI06:1,2016-04-07T05:00:00Z,28.8667,-90.4833,10.0,7.78,267.0,,'11111222,11111222,99999999' 
WAVCIS,ioos:station:WAVCIS:CSI06:1,2016-04-07T06:00:00Z,28.8667,-90.4833,10.0,8.32,276.0,,'11111222,11111222,99999999' 
WAVCIS,ioos:station:WAVCIS:CSI06:1,2016-04-07T07:00:00Z,28.8667,-90.4833,10.0,7.93,279.0,,'11111222,11111222,99999999' 
WAVCIS,ioos:station:WAVCIS:CSI06:1,2016-04-07T08:00:00Z,28.8667,-90.4833,10.0,9.12,280.0,,'11111222,11111222,99999999' 
WAVCIS,ioos:station:WAVCIS:CSI06:1,2016-04-07T09:00:00Z,28.8667,-90.4833,10.0,9.42,296.0,,'11111222,11111222,99999999' 
WAVCIS,ioos:station:WAVCIS:CSI06:1,2016-04-07T10:00:00Z,28.8667,-90.4833,10.0,9.52,318.0,,'11111222,11111222,99999999' 
WAVCIS,ioos:station:WAVCIS:CSI06:1,2016-04-07T11:00:00Z,28.8667,-90.4833,10.0,7.28,335.0,,'11111222,11111222,99999999' 
WAVCIS,ioos:station:WAVCIS:CSI06:1,2016-04-07T12:00:00Z,28.8667,-90.4833,10.0,5.319,337.0,,'11111222,11111222,99999999' 
WAVCIS,ioos:station:WAVCIS:CSI06:1,2016-04-07T13:00:00Z,28.8667,-90.4833,10.0,3.668,340.0,,'11111222,11111222,99999999' 
WAVCIS,ioos:station:WAVCIS:CSI06:1,2016-04-07T14:00:00Z,28.8667,-90.4833,10.0,3.551,319.0,,'11111222,11111222,99999999' 
WAVCIS,ioos:station:WAVCIS:CSI06:1,2016-04-07T15:00:00Z,28.8667,-90.4833,10.0,2.582,299.0,,'11111222,11111222,99999999' 
WAVCIS,ioos:station:WAVCIS:CSI06:1,2016-04-07T16:00:00Z,28.8667,-90.4833,10.0,0.657,303.0,,'11111222,11111222,99999999' 
WAVCIS,ioos:station:WAVCIS:CSI06:1,2016-04-07T17:00:00Z,28.8667,-90.4833,10.0,1.127,233.0,,'11111222,11111222,99999999' 
WAVCIS,ioos:station:WAVCIS:CSI06:1,2016-04-07T18:00:00Z,28.8667,-90.4833,10.0,2.257,251.0,,'11111222,11111222,99999999' 
WAVCIS,ioos:station:WAVCIS:CSI06:1,2016-04-07T19:00:00Z,28.8667,-90.4833,10.0,2.754,270.0,,'11111222,11111222,99999999' 
WAVCIS,ioos:station:WAVCIS:CSI06:1,2016-04-07T20:00:00Z,28.8667,-90.4833,10.0,3.154,266.0,,'11111222,11111222,99999999' 
WAVCIS,ioos:station:WAVCIS:CSI06:1,2016-04-07T21:00:00Z,28.8667,-90.4833,10.0,3.64,271.0,,'11111222,11111222,99999999' 
WAVCIS,ioos:station:WAVCIS:CSI06:1,2016-04-07T22:00:00Z,28.8667,-90.4833,10.0,5.094,254.0,,'11111222,11111222,99999999' 
WAVCIS,ioos:station:WAVCIS:CSI06:1,2016-04-07T23:00:00Z,28.8667,-90.4833,10.0,5.035,251.0,,'11111222,11111222,99999999' 
WAVCIS,ioos:station:WAVCIS:CSI06:1,2016-04-08T00:00:00Z,28.8667,-90.4833,10.0,5.55,269.0,,'11111222,11111222,99999999' 
WAVCIS,ioos:station:WAVCIS:CSI06:1,2016-04-08T01:00:00Z,28.8667,-90.4833,10.0,4.897,271.0,,'11111222,11111222,99999999' 
WAVCIS,ioos:station:WAVCIS:CSI06:1,2016-04-08T02:00:00Z,28.8667,-90.4833,10.0,5.147,278.0,,'11111222,11111222,99999999' 
WAVCIS,ioos:station:WAVCIS:CSI06:1,2016-04-08T03:00:00Z,28.8667,-90.4833,10.0,5.147,287.0,,'11111222,11111222,99999999' 
WAVCIS,ioos:station:WAVCIS:CSI06:1,2016-04-08T04:00:00Z,28.8667,-90.4833,10.0,5.662,285.0,,'11111222,11111222,99999999' 
WAVCIS,ioos:station:WAVCIS:CSI06:1,2016-04-08T05:00:00Z,28.8667,-90.4833,10.0,4.966,288.0,,'11111222,11111222,99999999' 
WAVCIS,ioos:station:WAVCIS:CSI06:1,2016-04-08T06:00:00Z,28.8667,-90.4833,10.0,5.207,284.0,,'11111222,11111222,99999999' 
WAVCIS,ioos:station:WAVCIS:CSI06:1,2016-04-08T07:00:00Z,28.8667,-90.4833,10.0,5.558,296.0,,'11111222,11111222,99999999' 
WAVCIS,ioos:station:WAVCIS:CSI06:1,2016-04-08T08:00:00Z,28.8667,-90.4833,10.0,5.291,299.0,,'11111222,11111222,99999999' 
WAVCIS,ioos:station:WAVCIS:CSI06:1,2016-04-08T09:00:00Z,28.8667,-90.4833,10.0,4.948,284.0,,'11111222,11111222,99999999' 
WAVCIS,ioos:station:WAVCIS:CSI06:1,2016-04-08T10:00:00Z,28.8667,-90.4833,10.0,5.248,286.0,,'11111222,11111222,99999999' 
WAVCIS,ioos:station:WAVCIS:CSI06:1,2016-04-08T11:00:00Z,28.8667,-90.4833,10.0,6.817,293.0,,'11111222,11111222,99999999' 
WAVCIS,ioos:station:WAVCIS:CSI06:1,2016-04-08T12:00:00Z,28.8667,-90.4833,10.0,9.85,315.0,,'11111222,11111222,99999999' 
WAVCIS,ioos:station:WAVCIS:CSI06:1,2016-04-08T13:00:00Z,28.8667,-90.4833,10.0,9.19,322.0,,'11111222,11111222,99999999' 
WAVCIS,ioos:station:WAVCIS:CSI06:1,2016-04-08T14:00:00Z,28.8667,-90.4833,10.0,5.827,347.0,,'11111222,11111222,99999999' 
WAVCIS,ioos:station:WAVCIS:CSI06:1,2016-04-08T15:00:00Z,28.8667,-90.4833,10.0,6.963,8.0,,'11111222,11111222,99999999' 
WAVCIS,ioos:station:WAVCIS:CSI06:1,2016-04-08T16:00:00Z,28.8667,-90.4833,10.0,8.77,15.0,,'11111222,11111222,99999999' 
WAVCIS,ioos:station:WAVCIS:CSI06:1,2016-04-08T17:00:00Z,28.8667,-90.4833,10.0,6.843,28.0,,'11111222,11111222,99999999' 
WAVCIS,ioos:station:WAVCIS:CSI06:1,2016-04-08T18:00:00Z,28.8667,-90.4833,10.0,4.952,40.0,,'11111222,11111222,99999999' 
WAVCIS,ioos:station:WAVCIS:CSI06:1,2016-04-08T19:00:00Z,28.8667,-90.4833,10.0,4.524,23.0,,'11111222,11111222,99999999' 
WAVCIS,ioos:station:WAVCIS:CSI06:1,2016-04-08T20:00:00Z,28.8667,-90.4833,10.0,5.348,20.0,,'11111222,11111222,99999999' 
WAVCIS,ioos:station:WAVCIS:CSI06:1,2016-04-08T21:00:00Z,28.8667,-90.4833,10.0,4.378,38.0,,'11111222,11111222,99999999' 
WAVCIS,ioos:station:WAVCIS:CSI06:1,2016-04-08T22:00:00Z,28.8667,-90.4833,10.0,2.935,60.0,,'11111222,11111222,99999999' 
WAVCIS,ioos:station:WAVCIS:CSI06:1,2016-04-08T23:00:00Z,28.8667,-90.4833,10.0,0.695,101.0,,'11111222,11111222,99999999' 
WAVCIS,ioos:station:WAVCIS:CSI06:1,2016-04-09T00:00:00Z,28.8667,-90.4833,10.0,1.372,236.0,,'11111222,11111222,99999999' 
WAVCIS,ioos:station:WAVCIS:CSI06:1,2016-04-09T01:00:00Z,28.8667,-90.4833,10.0,2.801,245.0,,'11111222,11111222,99999999' 
WAVCIS,ioos:station:WAVCIS:CSI06:1,2016-04-09T02:00:00Z,28.8667,-90.4833,10.0,3.16,251.0,,'11111222,11111222,99999999' 
WAVCIS,ioos:station:WAVCIS:CSI06:1,2016-04-09T03:00:00Z,28.8667,-90.4833,10.0,6.383,336.0,,'11111222,11111222,99999999' 
WAVCIS,ioos:station:WAVCIS:CSI06:1,2016-04-09T04:00:00Z,28.8667,-90.4833,10.0,6.936,7.0,,'11111222,11111222,99999999' 
WAVCIS,ioos:station:WAVCIS:CSI06:1,2016-04-09T05:00:00Z,28.8667,-90.4833,10.0,11.05,15.0,,'11111222,11111222,99999999' 